Wind_Speed
32 33 32 34 34 36 39 41 42 46 46 46 46 47 49 48 49 49 53 55 55 55 55 57 59 60 59 58 62 63 58 56 57 55 55 65 67 75 77 79 81 80 86 88 83
31 31 33 35 36 40 42 43 45 47 48 47 46 47 50 51 52 55 56 57 57 58 59 62 64 63 62 65 67 69 65 63 59 62 61 61 59 72 78 84 85 84 85 87 88
33 34 35 38 40 43 46 49 50 50 50 49 50 52 54 55 57 59 58 59 60 59 63 66 66 66 70 70 70 70 70 69 68 69 67 65 63 65 72 81 84 89 89 84 86
37 39 41 43 44 48 48 51 51 50 50 53 54 55 58 62 61 59 59 61 62 64 68 67 68 70 71 70 70 71 72 74 75 75 75 72 70 68 71 75 84 92 92 94 92
41 43 45 46 48 50 52 53 54 54 55 56 57 60 63 64 63 65 63 63 66 69 68 67 71 72 71 71 73 74 77 79 79 79 78 74 73 72 72 77 85 86 92 97 100
44 45 45 47 50 51 54 55 56 58 58 59 64 68 67 65 66 65 64 66 66 65 64 69 70 71 70 73 75 75 77 79 79 79 75 73 72 74 73 80 81 93 89 100 102
52 53 50 50 52 55 57 58 59 60 64 68 69 70 69 68 66 70 69 64 65 66 67 68 69 72 72 75 79 81 80 82 84 85 79 73 65 78 79 83 83 88 92 94 106
57 57 55 54 54 58 59 61 61 65 72 72 68 69 68 68 72 71 66 60 61 62 65 69 73 77 79 85 86 85 89 93 91 88 84 74 69 83 84 84 84 87 86 90 90
60 58 57 58 60 61 60 65 68 73 72 68 71 71 70 75 74 72 68 67 67 69 71 74 75 80 85 91 96 94 91 86 79 77 73 73 67 76 77 82 83 91 95 99 100
60 59 60 61 61 61 64 71 73 74 70 69 74 70 73 74 73 69 68 66 71 74 75 82 87 92 95 93 85 81 76 76 70 72 67 66 54 66 67 67 75 85 91 100 105
58 59 59 61 62 65 71 72 73 73 72 71 75 71 70 75 71 70 72 77 73 80 90 92 92 93 84 77 74 69 68 62 63 60 58 55 54 59 60 67 75 79 86 93 98
59 58 62 63 67 71 75 72 77 74 74 77 80 77 78 80 80 74 75 76 78 81 91 94 88 79 73 68 65 60 56 54 52 52 52 51 51 50 52 56 60 71 80 89 95
58 60 64 68 71 74 76 78 78 76 77 80 79 77 81 84 76 67 74 80 86 92 98 91 81 73 65 60 56 53 48 46 46 48 45 41 43 42 44 47 50 56 66 76 89
59 63 69 71 74 77 79 79 78 79 81 82 77 80 82 87 73 77 82 85 87 94 90 83 76 67 61 54 48 48 45 43 43 41 38 32 36 36 35 39 41 45 53 61 73
63 71 73 72 75 78 82 81 78 80 84 82 79 81 88 85 80 80 84 88 93 95 88 78 70 63 54 46 45 40 41 39 35 30 31 28 29 27 29 33 35 40 45 51 61
64 72 75 72 79 81 85 79 78 82 81 82 81 86 91 88 82 77 77 88 96 98 89 74 66 57 50 42 40 39 37 30 28 25 24 24 22 22 25 26 30 36 40 45 55
68 71 75 77 79 84 78 77 77 81 83 82 82 89 92 90 85 83 80 90 94 96 84 73 64 53 46 39 39 36 29 25 24 21 19 17 17 18 20 22 27 31 35 42 49
72 76 78 77 82 84 77 78 80 82 82 84 85 90 94 92 85 85 85 97 99 94 77 67 59 52 44 39 36 31 24 21 21 18 15 12 11 15 20 30 36 40 42 48 56
78 80 81 82 83 81 76 80 83 82 81 84 88 94 94 89 87 87 87 96 106 91 76 64 57 47 41 39 35 27 23 19 18 14 12 8 10 16 23 29 42 48 55 63 72
80 86 86 80 83 81 80 81 82 81 84 87 92 93 93 87 91 86 88 96 104 89 74 61 53 47 39 40 33 24 22 18 16 12 9 7 11 19 26 35 44 54 63 72 79
90 92 85 80 85 82 81 81 81 80 85 90 93 94 91 93 86 85 90 97 105 86 71 58 49 44 39 41 33 25 21 17 14 9 7 8 14 20 26 34 47 58 69 79 86
90 88 82 86 84 82 82 80 79 84 88 90 92 92 91 92 84 84 91 98 104 82 70 55 47 41 39 39 31 24 20 16 12 9 6 9 17 22 27 42 52 61 74 87 91
86 81 86 87 87 80 81 80 82 85 88 93 91 90 93 90 81 84 91 98 100 82 68 51 45 40 38 39 31 23 19 16 12 8 5 11 18 27 36 42 55 65 75 88 99
83 84 88 88 85 81 83 81 84 86 93 95 94 93 93 87 83 87 91 97 97 82 66 51 44 39 36 37 31 22 18 15 10 8 5 11 18 24 33 43 52 62 72 91 99
85 87 89 88 83 85 83 84 85 89 95 93 90 94 93 83 82 90 93 98 93 79 65 49 42 38 36 37 31 22 18 13 10 6 7 10 16 24 31 38 45 56 64 77 96
87 90 86 87 82 86 83 87 89 93 94 92 92 96 92 81 82 90 94 100 90 76 63 48 41 35 35 36 30 21 18 12 10 6 7 10 13 20 28 36 43 49 55 64 87
87 89 86 80 83 84 86 88 92 92 91 93 93 95 88 82 84 91 94 97 84 72 60 47 39 33 32 35 30 22 17 11 9 7 7 9 13 17 23 29 38 45 49 59 70
Wind_Direction
322 320 319 320 321 320 322 322 320 321 320 320 318 317 317 316 313 309 308 307 303 302 301 303 303 298 294 292 291 289 287 279 272 263 263 249 243 249 247 246 244 238 238 237 234
322 321 320 321 321 323 322 320 322 321 319 318 317 314 316 316 314 314 310 306 305 301 299 302 300 296 294 294 291 288 287 282 276 273 269 260 247 249 245 245 246 244 240 234 235
327 322 324 326 326 323 324 327 326 322 319 316 315 315 317 315 314 313 308 303 302 301 299 299 297 293 293 292 289 288 286 283 281 278 273 267 257 252 248 243 242 244 242 240 235
327 327 324 324 322 324 324 324 323 320 317 315 315 315 314 313 312 312 308 303 298 297 298 297 292 293 292 290 287 285 284 282 281 278 275 270 266 255 245 241 241 238 239 239 237
332 329 323 321 319 322 322 320 319 318 317 316 316 316 313 311 312 312 310 302 298 299 297 296 293 294 292 289 289 287 284 282 279 276 273 268 265 259 251 244 241 240 233 236 236
330 329 326 320 319 319 318 320 319 318 318 317 316 314 313 314 314 312 308 303 301 299 297 296 296 295 293 290 288 285 283 280 280 278 273 268 265 259 258 251 245 238 240 233 235
329 328 325 320 318 318 319 319 320 320 321 319 316 315 317 316 314 312 310 307 306 304 301 300 296 295 292 291 289 289 287 285 285 283 277 268 265 264 255 251 245 241 237 235 231
325 324 323 321 319 317 318 319 319 320 320 320 318 320 320 317 318 320 317 314 310 304 304 303 298 294 292 290 290 292 290 288 286 283 279 269 269 264 254 250 246 240 237 231 228
322 323 322 319 318 319 319 322 321 321 322 321 323 323 321 323 322 322 319 321 317 312 306 302 296 292 289 290 292 295 291 288 284 280 277 272 266 261 252 245 240 239 234 230 229
322 320 318 319 318 319 321 322 322 323 321 324 328 325 326 327 327 323 319 312 309 308 301 298 296 296 297 298 296 293 292 289 284 282 278 271 260 254 250 243 239 237 234 229 227
319 317 317 320 319 320 322 322 322 323 322 325 330 325 324 330 328 322 317 313 308 307 306 305 306 305 302 299 298 295 290 288 285 282 277 273 267 262 252 245 240 235 231 229 226
316 315 318 318 319 321 322 323 321 323 324 327 328 328 331 332 330 322 318 313 312 315 313 311 312 308 306 302 300 296 294 292 286 282 278 277 270 263 256 248 241 235 232 229 226
314 316 318 317 318 320 323 322 323 324 327 326 326 328 333 331 327 317 314 309 316 316 316 320 316 314 311 308 305 301 298 293 289 286 280 277 268 261 257 251 241 235 230 226 222
313 314 317 318 318 319 321 324 326 326 324 325 327 330 332 330 323 317 313 315 323 323 322 323 320 318 316 313 310 306 302 297 293 287 282 272 268 266 256 248 239 231 227 221 217
312 316 319 316 317 320 321 323 324 324 323 326 327 329 331 328 325 320 320 327 328 328 327 328 324 324 319 317 312 307 303 300 290 284 282 280 271 264 250 242 232 225 220 218 212
309 313 318 315 316 318 321 322 322 324 324 324 325 327 330 330 326 329 333 334 333 332 330 331 326 326 323 322 314 310 307 299 291 291 289 279 272 256 244 231 220 215 211 207 206
311 313 316 316 316 319 321 319 320 323 325 325 325 327 330 331 326 328 331 335 335 337 332 331 329 329 327 324 320 314 308 302 300 299 292 278 263 244 224 205 204 198 196 191 195
311 311 314 316 316 319 318 316 318 323 325 325 325 325 329 330 327 326 335 338 337 337 334 331 330 330 332 328 323 318 311 307 303 302 288 273 244 222 204 194 182 178 178 180 183
308 310 312 316 316 318 317 317 317 323 323 324 323 326 329 329 328 328 334 335 338 337 337 333 331 333 333 334 329 324 319 314 307 302 288 257 212 202 193 190 180 177 178 178 177
307 310 313 312 314 318 317 319 318 321 323 324 325 326 329 328 329 329 336 335 336 338 337 334 332 334 337 337 335 329 323 320 311 300 284 239 200 197 187 191 190 180 177 177 179
307 311 313 308 314 318 318 320 319 319 322 324 327 327 327 330 329 333 337 337 338 338 338 335 334 336 339 343 340 333 327 326 309 297 269 209 186 188 189 186 191 185 179 178 177
309 311 306 310 314 315 318 318 317 319 321 324 328 327 328 327 328 334 335 337 339 339 339 335 334 338 341 343 341 335 330 328 308 296 251 208 180 182 189 185 191 188 185 182 182
306 304 306 309 315 313 316 317 316 320 323 324 327 327 328 327 329 336 335 335 340 339 337 336 334 337 342 345 343 338 331 327 312 294 249 197 187 180 186 196 195 191 191 185 184
302 302 305 310 311 311 315 314 316 318 321 323 325 326 328 326 333 334 333 333 338 339 337 335 334 336 341 347 343 336 330 324 311 284 235 213 187 188 191 193 197 199 195 190 192
298 301 305 308 310 309 313 315 315 317 320 322 324 324 326 326 332 332 334 334 337 338 337 335 331 334 338 347 344 334 329 322 306 265 241 214 202 188 191 196 200 203 204 200 196
296 300 305 305 306 310 310 312 315 315 320 320 322 321 323 328 331 330 332 333 335 337 336 335 329 332 337 344 344 332 326 319 297 261 226 225 205 200 192 194 201 202 207 207 207
298 299 303 301 305 308 309 312 312 316 318 318 318 320 323 327 330 329 330 333 334 336 335 334 328 330 335 341 342 331 324 314 288 255 237 225 216 202 197 198 198 204 206 206 210
Height
10748 10745 10742 10739 10735 10731 10727 10722 10716 10711 10705 10701 10696 10690 10685 10680 10673 10667 10662 10656 10649 10644 10638 10634 10629 10624 10620 10617 10612 10607 10609 10609 10606 10608 10608 10606 10613 10607 10614 10613 10615 10626 10630 10645 10655
10745 10741 10737 10734 10730 10725 10721 10716 10711 10704 10699 10693 10689 10682 10676 10670 10664 10656 10650 10644 10637 10631 10626 10620 10614 10608 10604 10599 10596 10589 10589 10585 10586 10585 10586 10586 10594 10590 10591 10593 10598 10606 10611 10623 10635
10741 10737 10733 10728 10724 10719 10713 10708 10703 10697 10691 10684 10679 10674 10667 10661 10654 10645 10638 10631 10625 10617 10610 10603 10597 10591 10586 10581 10576 10572 10566 10562 10562 10560 10560 10563 10568 10568 10570 10576 10577 10581 10592 10607 10612
10737 10732 10727 10722 10716 10711 10707 10701 10694 10688 10682 10675 10669 10663 10657 10649 10643 10635 10626 10617 10610 10604 10596 10588 10580 10574 10567 10560 10555 10551 10546 10541 10537 10535 10534 10536 10542 10547 10546 10552 10550 10557 10569 10578 10585
10733 10728 10721 10716 10710 10705 10699 10693 10686 10679 10673 10666 10659 10652 10645 10636 10627 10620 10612 10602 10594 10587 10579 10571 10562 10555 10547 10540 10534 10529 10522 10517 10513 10510 10508 10511 10515 10516 10524 10523 10521 10526 10540 10548 10557
10727 10723 10717 10710 10703 10698 10692 10685 10678 10670 10664 10657 10649 10640 10630 10622 10612 10603 10596 10585 10577 10567 10560 10552 10543 10535 10527 10520 10513 10506 10500 10491 10484 10481 10480 10481 10488 10489 10493 10484 10499 10505 10514 10524 10535
10720 10715 10711 10704 10697 10690 10683 10676 10669 10661 10654 10646 10637 10626 10617 10607 10596 10587 10579 10567 10557 10547 10539 10530 10522 10514 10507 10498 10488 10478 10473 10464 10456 10448 10446 10451 10467 10454 10455 10455 10468 10473 10486 10492 10508
10712 10706 10701 10696 10689 10681 10674 10667 10659 10651 10642 10633 10622 10612 10602 10592 10581 10568 10558 10554 10543 10532 10522 10512 10502 10492 10482 10472 10461 10452 10442 10435 10422 10416 10409 10419 10440 10420 10420 10424 10434 10443 10454 10465 10477
10704 10698 10692 10686 10680 10673 10665 10658 10649 10639 10629 10619 10609 10598 10587 10575 10565 10554 10543 10533 10523 10513 10502 10491 10479 10468 10455 10442 10431 10420 10413 10401 10393 10381 10387 10384 10399 10382 10384 10390 10402 10406 10414 10425 10441
10695 10689 10682 10675 10668 10662 10655 10648 10637 10626 10616 10605 10595 10586 10575 10561 10548 10536 10528 10519 10509 10497 10486 10470 10456 10440 10428 10412 10400 10391 10380 10370 10365 10354 10355 10352 10365 10354 10356 10364 10370 10373 10387 10399 10415
10686 10680 10672 10665 10658 10651 10645 10636 10626 10615 10604 10594 10583 10572 10560 10549 10535 10522 10511 10497 10487 10477 10461 10444 10429 10414 10397 10383 10373 10366 10355 10351 10339 10336 10331 10331 10334 10330 10332 10335 10339 10350 10360 10374 10392
10677 10670 10663 10655 10647 10641 10632 10623 10614 10604 10593 10582 10570 10558 10546 10533 10518 10503 10492 10481 10468 10453 10435 10421 10406 10387 10372 10360 10349 10342 10334 10327 10322 10317 10313 10311 10308 10308 10309 10313 10320 10325 10336 10352 10365
10668 10661 10654 10646 10638 10629 10620 10611 10600 10590 10579 10569 10557 10546 10533 10523 10509 10497 10485 10469 10452 10434 10414 10392 10375 10362 10351 10339 10329 10319 10316 10310 10305 10299 10296 10294 10289 10291 10292 10294 10299 10307 10316 10332 10347
10660 10652 10645 10636 10628 10618 10609 10599 10589 10578 10568 10557 10547 10536 10524 10512 10501 10485 10470 10454 10436 10414 10395 10376 10359 10345 10333 10322 10314 10304 10298 10295 10290 10284 10281 10281 10278 10276 10278 10280 10285 10292 10302 10314 10333
10649 10642 10634 10625 10618 10609 10599 10588 10577 10567 10556 10545 10535 10523 10511 10498 10482 10468 10452 10432 10414 10394 10377 10358 10343 10331 10320 10311 10300 10295 10288 10283 10277 10275 10271 10269 10266 10266 10268 10269 10276 10282 10291 10306 10322
10639 10631 10623 10615 10607 10598 10588 10577 10566 10556 10546 10534 10522 10510 10497 10485 10468 10450 10435 10418 10397 10375 10359 10346 10331 10320 10307 10300 10291 10284 10278 10273 10268 10266 10263 10260 10259 10258 10258 10263 10269 10276 10287 10299 10314
10629 10620 10612 10604 10595 10586 10577 10565 10554 10544 10533 10522 10511 10499 10486 10471 10456 10440 10426 10409 10390 10371 10347 10334 10319 10310 10299 10290 10281 10276 10270 10265 10261 10259 10257 10255 10252 10253 10254 10259 10264 10275 10284 10294 10312
10617 10610 10602 10593 10583 10574 10564 10554 10543 10533 10522 10510 10499 10487 10474 10461 10445 10428 10409 10393 10374 10355 10339 10326 10312 10299 10291 10283 10275 10268 10263 10259 10256 10254 10252 10250 10249 10249 10251 10253 10258 10267 10280 10293 10308
10604 10599 10589 10581 10572 10562 10552 10542 10532 10524 10512 10501 10489 10475 10463 10449 10434 10418 10399 10383 10364 10345 10328 10316 10303 10296 10284 10276 10268 10262 10258 10254 10251 10250 10247 10248 10248 10248 10249 10255 10257 10265 10275 10286 10305
10589 10585 10578 10569 10560 10551 10541 10532 10521 10510 10499 10488 10477 10463 10450 10436 10422 10406 10388 10373 10355 10337 10321 10308 10297 10287 10280 10270 10263 10258 10254 10251 10247 10246 10245 10245 10247 10245 10250 10252 10259 10265 10275 10286 10305
10578 10571 10564 10556 10549 10540 10531 10521 10511 10500 10489 10478 10466 10453 10439 10425 10411 10396 10379 10364 10346 10329 10315 10302 10292 10283 10274 10265 10258 10254 10250 10248 10244 10244 10243 10244 10246 10245 10250 10255 10260 10267 10276 10288 10297
10565 10558 10550 10542 10535 10527 10518 10509 10500 10489 10478 10467 10455 10442 10429 10415 10402 10386 10370 10355 10337 10322 10308 10296 10287 10278 10271 10263 10256 10251 10247 10244 10242 10241 10242 10242 10246 10246 10250 10255 10259 10267 10277 10285 10293
10552 10544 10538 10530 10523 10514 10506 10498 10488 10478 10468 10456 10444 10431 10418 10405 10392 10378 10363 10348 10330 10315 10302 10293 10283 10273 10266 10259 10253 10249 10245 10242 10240 10239 10240 10242 10243 10247 10250 10254 10258 10266 10272 10281 10288
10539 10530 10521 10516 10509 10502 10494 10486 10477 10466 10456 10444 10434 10421 10408 10395 10381 10368 10356 10341 10323 10309 10297 10286 10278 10269 10263 10257 10251 10247 10243 10240 10238 10237 10238 10239 10243 10245 10249 10254 10260 10265 10273 10280 10286
10522 10515 10510 10503 10497 10488 10481 10474 10465 10456 10444 10434 10422 10410 10399 10387 10372 10358 10346 10332 10316 10303 10292 10283 10274 10266 10258 10253 10248 10244 10241 10238 10237 10236 10235 10237 10240 10244 10247 10251 10258 10264 10272 10280 10284
10507 10502 10498 10489 10482 10476 10468 10461 10452 10443 10434 10422 10411 10400 10389 10378 10365 10350 10338 10325 10310 10297 10287 10278 10271 10262 10255 10250 10245 10241 10239 10236 10235 10234 10234 10234 10237 10241 10245 10248 10253 10261 10269 10280 10285
10492 10488 10484 10477 10467 10461 10452 10447 10439 10430 10421 10411 10400 10389 10378 10367 10355 10342 10329 10319 10303 10291 10282 10274 10267 10260 10253 10247 10242 10239 10236 10234 10233 10232 10232 10233 10234 10237 10241 10247 10251 10255 10263 10272 10281